This is the latest recevied weather packets stored in our database for station/object N0HOT. If no packets are shown the sender has not sent any weather packets the latest 10 day(s).
| Time | Temp. | Humidity | Pressure | Rain* | Wind** | Luminosity | Snow |
|---|---|---|---|---|---|---|---|
| 1788465970 | 27.22° C | 70% | 1011.1 hPa | 0 mm | - | 174 W/m² | - |
| 1788465664 | 27.22° C | 69% | 1011.1 hPa | 0 mm | - | 180 W/m² | - |
| 1788465361 | 27.22° C | 71% | 1011.1 hPa | 0 mm | - | 182 W/m² | - |
| 1788465056 | 27.22° C | 70% | 1011.1 hPa | 0 mm | - | 203 W/m² | - |
| 1788464751 | 27.22° C | 68% | 1011.1 hPa | 0 mm | - | 200 W/m² | - |
| 1788464446 | 27.22° C | 71% | 1011.1 hPa | 0 mm | - | 221 W/m² | - |
| 1788464142 | 27.22° C | 71% | 1011.1 hPa | 0 mm | - | 291 W/m² | - |
| 1788463837 | 27.78° C | 72% | 1010.8 hPa | 0 mm | - | 274 W/m² | - |
| 1788463534 | 27.78° C | 74% | 1011.1 hPa | 0 mm | - | 269 W/m² | - |
| 1788463234 | 27.78° C | 70% | 1011.1 hPa | 0 mm | - | 234 W/m² | - |
| 1788462931 | 27.22° C | 72% | 1011.5 hPa | 0 mm | - | 180 W/m² | - |
| 1788462625 | 27.22° C | 74% | 1011.5 hPa | 0 mm | - | 288 W/m² | - |
| 1788462325 | 26.67° C | 75% | 1011.5 hPa | 0 mm | - | 457 W/m² | - |
| 1788462024 | 26.67° C | 75% | 1011.8 hPa | 0 mm | - | 415 W/m² | - |
| 1788461720 | 26.67° C | 75% | 1011.8 hPa | 0 mm | - | 246 W/m² | - |
| 1788461415 | 26.67° C | 74% | 1011.8 hPa | 0 mm | - | 167 W/m² | - |
| 1788461106 | 26.67° C | 73% | 1011.5 hPa | 0 mm | - | 144 W/m² | - |
| 1788460806 | 26.67° C | 76% | 1011.5 hPa | 0 mm | - | 149 W/m² | - |
| 1788460500 | 26.11° C | 76% | 1011.5 hPa | 0 mm | - | 181 W/m² | - |
| 1788460200 | 25.56° C | 76% | 1011.5 hPa | 0 mm | - | 332 W/m² | - |
| 1788459898 | 25.56° C | 79% | 1011.5 hPa | 0 mm | - | 348 W/m² | - |
| 1788459594 | 25° C | 77% | 1011.1 hPa | 0 mm | - | 372 W/m² | - |
| 1788459288 | 25° C | 77% | 1011.1 hPa | 0 mm | - | 367 W/m² | - |
| 1788458988 | 24.44° C | 79% | 1011.5 hPa | 0 mm | - | 339 W/m² | - |
| 1788458683 | 24.44° C | 81% | 1011.1 hPa | 0 mm | - | 305 W/m² | - |
* Rain latest hour (hover to see other rain measurements)
** Current wind speed in m/s (hover to see current wind gust speed)